Regional Weather Roundup
Issued by NWS

Home | Current Version | Previous Version | Graphics & Text | Print | Product List | Glossary On
Versions: 1 2 3 4 5 6 7 8 9 10 11 12 13 14 15 16 17 18 19 20 21 22 23 24 25 26 27 28 29 30 31 32 33 34 35 36 37 38 39 40 41 42 43 44 45 46 47 48 49 50
000
ASUS43 KFSD 241110
RWRSD

WEATHER ROUNDUP FOR SOUTH DAKOTA
NATIONAL WEATHER SERVICE SIOUX FALLS SD
600 AM CDT SUN MAY 24 2015

NOTE: "FAIR" INDICATES FEW OR NO CLOUDS BELOW 12,000 FEET WITH NO
SIGNIFICANT WEATHER AND/OR OBSTRUCTIONS TO VISIBILITY.


SDZ001>005-009-010-012>017-241200-
NORTHWEST AND NORTH CENTRAL SOUTH DAKOTA

CITY           SKY/WX    TMP DP  RH WIND       PRES   REMARKS
BUFFALO          N/A     51  50  96 NE10      29.96F
FAITH            N/A     51  49  92 NE12      29.99F
MOBRIDGE       CLOUDY    56  52  86 NE3       30.00F
$$

SDZ012>016-024>037-041>051-057-063-072>074-241200-
SOUTHWEST AND SOUTH CENTRAL SOUTH DAKOTA

CITY           SKY/WX    TMP DP  RH WIND       PRES   REMARKS
RAPID CTY ARPT LGT RAIN  52  51  97 E13       29.95F FOG
PIERRE         CLOUDY    55  54  96 E5        29.97F
CUSTER         LGT RAIN  47  45  93 E8        29.96S FOG
ELLSWORTH AFB  DRIZZLE   52  52 100 E10       29.95
PHILIP         LGT RAIN  54  54 100 NE12      29.96S FOG
PINE RIDGE     CLOUDY    52  51  97 E9        29.91F FOG
SPEARFISH      LGT RAIN  50  50 100 E14       29.99S
WINNER         CLOUDY    56  54  93 E9        29.95F FOG
$$

SDZ004>011-016>023-039-040-241200-
NORTHEAST SOUTH DAKOTA

CITY           SKY/WX    TMP DP  RH WIND       PRES   REMARKS
ABERDEEN       CLOUDY    55  49  80 N8        30.01F
WATERTOWN      CLOUDY    55  49  80 NE5       30.00F
BROOKINGS      CLOUDY    57  55  94 E6        30.00F
SISSETON         N/A     55  49  80 CALM      30.02F
$$

SDZ017-020-022-023-036>040-048>070-241200-
SOUTHEAST SOUTH DAKOTA

CITY           SKY/WX    TMP DP  RH WIND       PRES   REMARKS
SIOUX FALLS    DRIZZLE   59  57  93 E9        29.96F
HURON          CLOUDY    54  53  97 NE3       29.98F FOG
CHAMBERLAIN    CLOUDY    55  55 100 E3        29.97R FOG
MITCHELL       CLOUDY    58  56  93 NE6       29.96F FOG
YANKTON        CLOUDY    59  55  88 E12       29.93S
$$

ABBREVIATIONS USED IN REMARKS
   TC - TEMPERATURE IN CELSIUS
  WCI - WIND CHILL INDEX
   HX - HEAT INDEX
  VSB - VISIBILITY




USA.gov is the U.S. government's official web portal to all federal, state and local government web resources and services.